Time,TemperatureF,DewpointF,PressureIn,WindDirection,WindDirectionDegrees,WindSpeedMPH,WindSpeedGustMPH,Humidity,HourlyPrecipIn,Conditions,Clouds,dailyrainin,SoftwareType,DateUTC
2013-01-11 00:00:00,43.0,-99.9,-100.00,North,-999,-999.0,-999.0,-999,0.00,,,0.50,,2013-01-11 06:00:00,
2013-01-11 00:43:00,43.0,-99.9,-100.00,North,-999,-999.0,-999.0,-999,0.00,,,0.50,,2013-01-11 06:43:00,
2013-01-11 00:53:00,43.0,-99.9,-100.00,North,-999,-999.0,-999.0,-999,0.00,,,0.50,,2013-01-11 06:53:00,
2013-01-11 01:00:00,43.0,-99.9,-100.00,North,-999,-999.0,-999.0,-999,0.00,,,0.40,,2013-01-11 07:00:00,
2013-01-11 01:43:00,43.0,-99.9,-100.00,North,-999,-999.0,-999.0,-999,0.00,,,0.40,,2013-01-11 07:43:00,
2013-01-11 01:53:00,43.0,-99.9,-100.00,North,-999,-999.0,-999.0,-999,0.00,,,0.40,,2013-01-11 07:53:00,
2013-01-11 02:00:00,43.0,-99.9,-100.00,North,-999,-999.0,-999.0,-999,0.00,,,0.31,,2013-01-11 08:00:00,
2013-01-11 02:43:00,43.0,-99.9,-100.00,North,-999,-999.0,-999.0,-999,0.00,,,0.31,,2013-01-11 08:43:00,
2013-01-11 02:53:00,43.0,-99.9,-100.00,North,-999,-999.0,-999.0,-999,0.00,,,0.31,,2013-01-11 08:53:00,
2013-01-11 03:00:00,44.0,-99.9,-100.00,North,-999,-999.0,-999.0,-999,0.00,,,0.21,,2013-01-11 09:00:00,
2013-01-11 03:43:00,44.0,-99.9,-100.00,North,-999,-999.0,-999.0,-999,0.00,,,0.21,,2013-01-11 09:43:00,
2013-01-11 03:53:00,44.0,-99.9,-100.00,North,-999,-999.0,-999.0,-999,0.00,,,0.21,,2013-01-11 09:53:00,
2013-01-11 04:00:00,42.0,-99.9,-100.00,North,-999,-999.0,-999.0,-999,0.00,,,0.10,,2013-01-11 10:00:00,
2013-01-11 04:43:00,42.0,-99.9,-100.00,North,-999,-999.0,-999.0,-999,0.00,,,0.10,,2013-01-11 10:43:00,
2013-01-11 04:53:00,42.0,-99.9,-100.00,North,-999,-999.0,-999.0,-999,0.00,,,0.10,,2013-01-11 10:53:00,
2013-01-11 05:00:00,41.0,-99.9,-100.00,North,-999,-999.0,-999.0,-999,0.00,,,0.03,,2013-01-11 11:00:00,
2013-01-11 05:43:00,41.0,-99.9,-100.00,North,-999,-999.0,-999.0,-999,0.00,,,0.03,,2013-01-11 11:43:00,
2013-01-11 05:53:00,41.0,-99.9,-100.00,North,-999,-999.0,-999.0,-999,0.00,,,0.03,,2013-01-11 11:53:00,
2013-01-11 06:00:00,41.0,-99.9,-100.00,North,-999,-999.0,-999.0,-999,0.00,,,0.03,,2013-01-11 12:00:00,
2013-01-11 06:43:00,41.0,-99.9,-100.00,North,-999,-999.0,-999.0,-999,0.00,,,0.03,,2013-01-11 12:43:00,
2013-01-11 06:53:00,41.0,-99.9,-100.00,North,-999,-999.0,-999.0,-999,0.00,,,0.03,,2013-01-11 12:53:00,
2013-01-11 07:00:00,41.0,-99.9,-100.00,North,-999,-999.0,-999.0,-999,0.00,,,0.02,,2013-01-11 13:00:00,
2013-01-11 07:43:00,41.0,-99.9,-100.00,North,-999,-999.0,-999.0,-999,0.00,,,0.02,,2013-01-11 13:43:00,
2013-01-11 07:53:00,41.0,-99.9,-100.00,North,-999,-999.0,-999.0,-999,0.00,,,0.02,,2013-01-11 13:53:00,
2013-01-11 08:00:00,41.0,-99.9,-100.00,North,-999,-999.0,-999.0,-999,0.00,,,0.02,,2013-01-11 14:00:00,
2013-01-11 08:43:00,41.0,-99.9,-100.00,North,-999,-999.0,-999.0,-999,0.00,,,0.02,,2013-01-11 14:43:00,
2013-01-11 08:54:00,41.0,-99.9,-100.00,North,-999,-999.0,-999.0,-999,0.00,,,0.02,,2013-01-11 14:54:00,
2013-01-11 09:00:00,43.0,-99.9,-100.00,North,-999,-999.0,-999.0,-999,0.00,,,0.02,,2013-01-11 15:00:00,
2013-01-11 09:43:00,43.0,-99.9,-100.00,North,-999,-999.0,-999.0,-999,0.00,,,0.02,,2013-01-11 15:43:00,
2013-01-11 09:53:00,43.0,-99.9,-100.00,North,-999,-999.0,-999.0,-999,0.00,,,0.02,,2013-01-11 15:53:00,
2013-01-11 10:00:00,47.0,-99.9,-100.00,North,-999,-999.0,-999.0,-999,0.00,,,0.01,,2013-01-11 16:00:00,
2013-01-11 10:43:00,47.0,-99.9,-100.00,North,-999,-999.0,-999.0,-999,0.00,,,0.01,,2013-01-11 16:43:00,
2013-01-11 10:53:00,47.0,-99.9,-100.00,North,-999,-999.0,-999.0,-999,0.00,,,0.01,,2013-01-11 16:53:00,
2013-01-11 11:00:00,50.0,-99.9,-100.00,North,-999,-999.0,-999.0,-999,0.00,,,0.01,,2013-01-11 17:00:00,
2013-01-11 11:43:00,50.0,-99.9,-100.00,North,-999,-999.0,-999.0,-999,0.00,,,0.01,,2013-01-11 17:43:00,
2013-01-11 11:54:00,50.0,-99.9,-100.00,North,-999,-999.0,-999.0,-999,0.00,,,0.01,,2013-01-11 17:54:00,
2013-01-11 12:00:00,53.0,-99.9,-100.00,North,-999,-999.0,-999.0,-999,0.00,,,0.01,,2013-01-11 18:00:00,
2013-01-11 12:43:00,53.0,-99.9,-100.00,North,-999,-999.0,-999.0,-999,0.00,,,0.01,,2013-01-11 18:43:00,
2013-01-11 12:54:00,53.0,-99.9,-100.00,North,-999,-999.0,-999.0,-999,0.00,,,0.01,,2013-01-11 18:54:00,
2013-01-11 13:00:00,56.0,-99.9,-100.00,North,-999,-999.0,-999.0,-999,0.00,,,0.00,,2013-01-11 19:00:00,
2013-01-11 13:43:00,56.0,-99.9,-100.00,North,-999,-999.0,-999.0,-999,0.00,,,0.00,,2013-01-11 19:43:00,
2013-01-11 13:54:00,56.0,-99.9,-100.00,North,-999,-999.0,-999.0,-999,0.00,,,0.00,,2013-01-11 19:54:00,
2013-01-11 14:00:00,63.0,-99.9,-100.00,North,-999,-999.0,-999.0,-999,0.00,,,0.00,,2013-01-11 20:00:00,
2013-01-11 14:33:00,63.0,-99.9,-100.00,North,-999,-999.0,-999.0,-999,0.00,,,0.00,,2013-01-11 20:33:00,
2013-01-11 14:43:00,63.0,-99.9,-100.00,North,-999,-999.0,-999.0,-999,0.00,,,0.00,,2013-01-11 20:43:00,
2013-01-11 14:53:00,63.0,-99.9,-100.00,North,-999,-999.0,-999.0,-999,0.00,,,0.00,,2013-01-11 20:53:00,
2013-01-11 15:00:00,64.0,-99.9,-100.00,North,-999,-999.0,-999.0,-999,0.00,,,0.00,,2013-01-11 21:00:00,
2013-01-11 15:33:00,64.0,-99.9,-100.00,North,-999,-999.0,-999.0,-999,0.00,,,0.00,,2013-01-11 21:33:00,
2013-01-11 15:43:00,64.0,-99.9,-100.00,North,-999,-999.0,-999.0,-999,0.00,,,0.00,,2013-01-11 21:43:00,
2013-01-11 15:53:00,64.0,-99.9,-100.00,North,-999,-999.0,-999.0,-999,0.00,,,0.00,,2013-01-11 21:53:00,
2013-01-11 16:00:00,65.0,-99.9,-100.00,North,-999,-999.0,-999.0,-999,0.00,,,0.00,,2013-01-11 22:00:00,
2013-01-11 16:43:00,65.0,-99.9,-100.00,North,-999,-999.0,-999.0,-999,0.00,,,0.00,,2013-01-11 22:43:00,
2013-01-11 16:53:00,65.0,-99.9,-100.00,North,-999,-999.0,-999.0,-999,0.00,,,0.00,,2013-01-11 22:53:00,
2013-01-11 17:00:00,65.0,-99.9,-100.00,North,-999,-999.0,-999.0,-999,0.00,,,0.00,,2013-01-11 23:00:00,
2013-01-11 17:43:00,65.0,-99.9,-100.00,North,-999,-999.0,-999.0,-999,0.00,,,0.00,,2013-01-11 23:43:00,
2013-01-11 17:54:00,65.0,-99.9,-100.00,North,-999,-999.0,-999.0,-999,0.00,,,0.00,,2013-01-11 23:54:00,
2013-01-11 18:00:00,62.0,-99.9,-100.00,North,-999,-999.0,-999.0,-999,0.00,,,0.00,,2013-01-12 00:00:00,
2013-01-11 18:43:00,62.0,-99.9,-100.00,North,-999,-999.0,-999.0,-999,0.00,,,0.00,,2013-01-12 00:43:00,
2013-01-11 18:53:00,62.0,-99.9,-100.00,North,-999,-999.0,-999.0,-999,0.00,,,0.00,,2013-01-12 00:53:00,
2013-01-11 19:00:00,60.0,-99.9,-100.00,North,-999,-999.0,-999.0,-999,0.00,,,0.00,,2013-01-12 01:00:00,
2013-01-11 19:33:00,60.0,-99.9,-100.00,North,-999,-999.0,-999.0,-999,0.00,,,0.00,,2013-01-12 01:33:00,
2013-01-11 19:43:00,60.0,-99.9,-100.00,North,-999,-999.0,-999.0,-999,0.00,,,0.00,,2013-01-12 01:43:00,
2013-01-11 19:53:00,60.0,-99.9,-100.00,North,-999,-999.0,-999.0,-999,0.00,,,0.00,,2013-01-12 01:53:00,
2013-01-11 20:00:00,55.0,-99.9,-100.00,North,-999,-999.0,-999.0,-999,0.00,,,0.00,,2013-01-12 02:00:00,
2013-01-11 20:43:00,55.0,-99.9,-100.00,North,-999,-999.0,-999.0,-999,0.00,,,0.00,,2013-01-12 02:43:00,
2013-01-11 20:53:00,55.0,-99.9,-100.00,North,-999,-999.0,-999.0,-999,0.00,,,0.00,,2013-01-12 02:53:00,
2013-01-11 21:00:00,55.0,-99.9,-100.00,North,-999,-999.0,-999.0,-999,0.00,,,0.00,,2013-01-12 03:00:00,
2013-01-11 21:33:00,55.0,-99.9,-100.00,North,-999,-999.0,-999.0,-999,0.00,,,0.00,,2013-01-12 03:33:00,
2013-01-11 21:43:00,55.0,-99.9,-100.00,North,-999,-999.0,-999.0,-999,0.00,,,0.00,,2013-01-12 03:43:00,
2013-01-11 22:00:00,51.0,-99.9,-100.00,North,-999,-999.0,-999.0,-999,0.00,,,0.00,,2013-01-12 04:00:00,
2013-01-11 22:43:00,51.0,-99.9,-100.00,North,-999,-999.0,-999.0,-999,0.00,,,0.00,,2013-01-12 04:43:00,
2013-01-11 22:53:00,51.0,-99.9,-100.00,North,-999,-999.0,-999.0,-999,0.00,,,0.00,,2013-01-12 04:53:00,
2013-01-11 23:00:00,50.0,-99.9,-100.00,North,-999,-999.0,-999.0,-999,0.00,,,0.00,,2013-01-12 05:00:00,
2013-01-11 23:32:00,50.0,-99.9,-100.00,North,-999,-999.0,-999.0,-999,0.00,,,0.00,,2013-01-12 05:32:00,
2013-01-11 23:43:00,50.0,-99.9,-100.00,North,-999,-999.0,-999.0,-999,0.00,,,0.00,,2013-01-12 05:43:00,
2013-01-11 23:53:00,50.0,-99.9,-100.00,North,-999,-999.0,-999.0,-999,0.00,,,0.00,,2013-01-12 05:53:00,